VAXJO current weather conditions

sailwx.info

Wind from 160 at 12 knots gusting 24

Air temperature 6.0° C
Visibility: greater than 4.3 NM
Dewpoint 4.0° C
Present weather: Mist.

Last reported at 2014-Nov-23 23:50 UTC.
Time now 2014-Nov-24 01:24 UTC

Location: N 56°51' E 014°50'.
View on Google Maps.

See reports from other nearby stations

  
Tides and Currents Weather Stations Pressure Air Temp Water Temp Dewpoint Dewpoint Depression Visibility Wind Speed Wind Dir Waves Ship Positions
date/time (UTC)wind fromknots sea level pressurealtimeterstation pressurevisibilityair tempwater tempwave heightnotes
2014-Nov-24 00:50 150 12 3.8 7.0 Mist.
2014-Nov-24 00:20 150 11 gusting 22 3.8 6.0 Mist.
2014-Nov-23 23:50 160 12 gusting 24 4.3 6.0 Mist.
2014-Nov-23 23:20 150 13 4.3 6.0 Mist.
2014-Nov-23 22:50 150 12 4.9 6.0 Mist.
2014-Nov-23 22:20 150 12 5.4 6.0
2014-Nov-23 21:50 140 11 gusting 22 5.4 6.0
2014-Nov-23 21:20 140 11 5.4 6.0
2014-Nov-23 20:50 140 9 5.4 6.0
2014-Nov-23 20:20 130 11 5.4 6.0 Light rain.
2014-Nov-23 19:50 140 9 5.4 6.0
2014-Nov-23 19:20 140 10 5.4 6.0
2014-Nov-23 18:50 140 8 5.4 6.0
2014-Nov-23 18:20 130 10 5.4 6.0
2014-Nov-23 17:50 140 9 4.9 5.0 Mist.
2014-Nov-23 17:20 140 10 5.4 5.0
2014-Nov-23 16:50 140 9 5.4 5.0
2014-Nov-23 16:20 140 9 5.4 5.0
2014-Nov-23 15:50 130 8 5.4 5.0
2014-Nov-23 15:20 130 8 5.4 5.0
2014-Nov-23 14:50 140 8 5.4 6.0
2014-Nov-23 14:20 130 9 5.4 6.0
2014-Nov-23 13:50 140 7 5.4 6.0
2014-Nov-23 13:20 130 8 5.4 6.0
2014-Nov-23 12:50 140 9 5.4 6.0
2014-Nov-23 12:20 140 8 5.4 6.0
2014-Nov-23 11:50 150 9 5.4 6.0
2014-Nov-23 11:20 140 7 5.4 6.0
2014-Nov-23 10:50 140 7 5.4 6.0
2014-Nov-23 10:20 140 7 5.4 6.0
2014-Nov-23 09:50 140 6 5.4 6.0
2014-Nov-23 09:20 140 8 5.4 6.0
2014-Nov-23 08:50 140 6 5.4 6.0
2014-Nov-23 08:20 130 6 5.4 6.0
2014-Nov-23 07:50 140 6 5.4 5.0
2014-Nov-23 07:20 140 6 5.4 5.0
2014-Nov-23 06:50 140 5 5.4 5.0
2014-Nov-23 06:20 140 5 5.4 5.0
2014-Nov-23 05:50 130 4 5.4 5.0
2014-Nov-23 05:20 130 3 5.4 5.0
2014-Nov-23 04:50 100 3 3.2 5.0 Mist.
2014-Nov-23 04:20 130 4 2.3 5.0 Drizzle.
2014-Nov-23 03:50 140 5 5.4 5.0
2014-Nov-23 03:20 140 4 5.4 5.0
2014-Nov-23 02:50 140 3 5.4 5.0
2014-Nov-23 02:20 5.4 5.0
2014-Nov-23 01:50 5.4 5.0
2014-Nov-23 01:20 5.4 4.0
2014-Nov-23 00:50 5.4 4.0
2014-Nov-23 00:20 110 3 4.3 4.0 Mist.
2014-Nov-22 23:50 3.8 4.0
2014-Nov-22 23:20 130 3 3.8 5.0 Mist.
2014-Nov-22 22:50 130 2 3.8 5.0
2014-Nov-22 22:20 130 4 3.2 4.0 Mist.
2014-Nov-22 21:50 120 3 2.7 4.0 Mist.
2014-Nov-22 21:20 140 4 2.2 4.0 Mist.
2014-Nov-22 20:50 130 4 5.4 4.0
2014-Nov-22 20:20 120 4 5.4 4.0
2014-Nov-22 19:50 130 4 5.4 4.0
2014-Nov-22 19:20 110 3 5.4 3.0
2014-Nov-22 18:50 100 2 5.4 3.0
2014-Nov-22 18:20 5.4 3.0
2014-Nov-22 17:50 120 4 5.4 3.0
2014-Nov-22 17:20 100 4 5.4 3.0
2014-Nov-22 16:50 5.4 3.0
2014-Nov-22 16:20 090 3 5.4 3.0
2014-Nov-22 15:50 5.4 2.0
2014-Nov-22 15:20 130 3 5.4 3.0
2014-Nov-22 14:50 170 4 5.4 3.0
2014-Nov-22 14:20 5.4 3.0
2014-Nov-22 13:50 5.4 2.0
2014-Nov-22 13:20 4.9 2.0 Mist.
2014-Nov-22 12:50 3.8 2.0
2014-Nov-22 12:20 210 3 4.3 1.0 Mist.
2014-Nov-22 11:50 5.4 1.0
2014-Nov-22 11:20 5.4 1.0
2014-Nov-22 10:50 4.9 1.0 Mist.
2014-Nov-22 10:20 2.1-0.0
2014-Nov-22 09:50 150 2 0.2-0.0
2014-Nov-22 09:20 0.3-0.0 Freezing fog.
2014-Nov-22 08:50 0.1-0.0
2014-Nov-22 08:20 120 3 0.2-0.0 Freezing fog.
2014-Nov-22 07:50 080 2 0.1-0.0
2014-Nov-22 07:20 090 3 0.2-0.0 Fog.
2014-Nov-22 06:50 050 2 3.8 1.0
2014-Nov-22 06:20 3.2 1.0 Mist.
2014-Nov-22 05:50 050 4 3.8 1.0
2014-Nov-22 05:20 1.8-1.0
2014-Nov-22 04:50 0.1-1.0 Freezing fog.
2014-Nov-22 04:20 1.4-2.0
2014-Nov-22 03:50 5.4-2.0
2014-Nov-22 03:20 4.3-2.0 Mist.
2014-Nov-22 02:50 3.8-2.0
2014-Nov-22 02:20 5.4-1.0
2014-Nov-22 01:50 240 1 5.4-1.0
2014-Nov-22 01:20 170 2 5.4-0.0